Date String (YYYY-MM-DD hh:mm:ss) UTC,Instrument flags,absolute air pressure of the measurement (hPa),sample flow rate (lpm),inlet stack bypass flow (lpm),air temperature of the measurement (°C),ambient temperature measured by the external sensor (°C),aerosol sample conditioner tube jacket temperature (°C),OPC LED temperature (°C),internal box temperature (°C),relative humidity of the measurement (%),span deviation,mass concentration of particles derived from Lorenz-Mie calculation of OPC scattering (μg/m³),mass concentration of particles derived from Lorenz-Mie calculation of OPC scattering (μg/m³),mass concentration of particles derived from Lorenz-Mie calculation of OPC scattering (μg/m³)
DateTimeUTC,F1_M11,P_M11,Q1_M11,Q2_M11,T1_M11,T2_M11,T3_M11,T4_M11,T5_M11,U1_M11,ZSPAN_M11,X0_M11,X2_M11,X1_M11
2023-10-24 03:00:00,SystemResetWarning,0822.5,5.00,000.00,028.2,025.4,000.0,036.8,029.8,13.3,0000.2,0025.69,0006.99,0004.69
2023-10-24 03:01:00,SystemResetWarning,0822.6,5.01,000.00,028.2,025.8,000.0,036.8,029.9,13.3,0003.5,0026.31,0006.94,0004.69
2023-10-24 03:02:00,SystemResetWarning,0822.6,4.99,000.00,028.2,026.1,000.0,036.8,029.9,13.4,0000.8,0025.71,0006.94,0004.70
2023-10-24 03:03:00,SystemResetWarning,0822.7,4.99,000.00,028.2,026.3,000.0,036.8,030.0,13.4,0000.0,0026.10,0006.88,0004.71
2023-10-24 03:04:00,SystemResetWarning,0822.6,5.00,000.00,028.3,026.5,000.0,036.8,030.0,13.4,0000.0,0025.14,0006.88,0004.69
2023-10-24 03:05:00,SystemResetWarning,0822.6,5.01,000.00,028.3,026.7,000.0,036.8,030.1,13.5,0000.0,0025.37,0006.90,0004.70
2023-10-24 03:06:00,SystemResetWarning,0822.6,5.01,000.00,028.3,026.9,000.0,036.8,030.1,13.6,0003.5,0024.78,0006.85,0004.70
2023-10-24 03:07:00,SystemResetWarning,0822.7,5.01,000.00,028.4,027.0,000.0,036.8,030.1,13.7,0005.3,0023.12,0006.81,0004.69
2023-10-24 03:08:00,SystemResetWarning,0822.7,4.99,000.00,028.4,027.1,000.0,036.8,030.2,13.8,0004.8,0023.42,0006.80,0004.67
2023-10-24 03:09:00,SystemResetWarning,0822.6,4.99,000.00,028.4,027.2,000.0,036.9,030.2,14.1,0003.0,0022.51,0006.79,0004.67
2023-10-24 03:10:00,SystemResetWarning,0822.8,5.01,000.00,028.5,027.3,000.0,036.9,030.2,14.3,0002.5,0022.50,0006.74,0004.67
2023-10-24 03:11:00,SystemResetWarning,0822.8,5.01,000.00,028.5,027.4,000.0,036.9,030.3,14.3,0000.0,0022.54,0006.76,0004.68
2023-10-24 03:12:00,SystemResetWarning,0822.7,5.01,000.00,028.5,027.5,000.0,036.9,030.3,14.2,0000.8,0023.91,0006.79,0004.67
2023-10-24 03:13:00,SystemResetWarning,0822.7,5.01,000.00,028.6,027.5,000.0,036.9,030.3,14.2,0000.0,0025.30,0006.71,0004.66
2023-10-24 03:14:00,SystemResetWarning,0822.6,5.00,000.00,028.6,027.6,000.0,037.0,030.4,14.3,0000.6,0025.44,0006.69,0004.66
2023-10-24 03:15:00,SystemResetWarning,0822.9,5.00,000.00,028.6,027.5,000.0,037.0,030.4,14.4,0005.0,0025.91,0006.75,0004.68
2023-10-24 03:16:00,SystemResetWarning,0822.6,4.98,000.00,028.6,025.8,000.0,036.9,030.3,14.4,0004.9,0025.73,0006.80,0004.69
2023-10-24 03:17:00,SystemResetWarning,0822.6,5.02,000.00,028.5,024.5,000.0,036.9,030.1,14.6,0004.9,0025.98,0006.82,0004.68
2023-10-24 03:18:00,SystemResetWarning,0822.9,5.00,000.00,028.5,024.5,000.0,036.8,029.9,14.7,0004.9,0026.81,0006.90,0004.68
2023-10-24 03:19:00,SystemResetWarning,0822.8,5.00,000.00,028.3,024.8,000.0,036.8,029.8,14.7,0005.4,0026.20,0006.97,0004.70
2023-10-24 03:20:00,SystemResetWarning,0822.7,5.00,000.00,028.3,025.2,000.0,036.8,029.8,14.8,0002.1,0025.71,0006.93,0004.70
2023-10-24 03:21:00,SystemResetWarning,0822.8,5.00,000.00,028.3,025.6,000.0,036.8,029.9,14.8,0000.0,0025.84,0006.90,0004.70
2023-10-24 03:22:00,SystemResetWarning,0822.8,5.00,000.00,028.3,025.9,000.0,036.8,029.9,14.8,0000.0,0026.01,0006.95,0004.70
2023-10-24 03:23:00,SystemResetWarning,0822.8,5.00,000.00,028.3,026.2,000.0,036.8,030.0,14.8,0000.0,0025.30,0006.90,0004.69
2023-10-24 03:24:00,SystemResetWarning,0822.7,5.00,000.00,028.3,026.4,000.0,036.8,030.0,14.9,0000.0,0024.70,0006.88,0004.70
2023-10-24 03:25:00,SystemResetWarning,0822.7,5.00,000.00,028.3,026.6,000.0,036.8,030.0,14.8,0000.0,0024.07,0006.97,0004.71
2023-10-24 03:26:00,SystemResetWarning,0822.9,5.00,000.00,028.3,026.8,000.0,036.8,030.1,14.8,0000.0,0022.76,0006.91,0004.69
2023-10-24 03:27:00,SystemResetWarning,0822.6,5.00,000.00,028.4,026.9,000.0,036.9,030.1,14.8,0000.0,0023.36,0006.80,0004.67
2023-10-24 03:28:00,SystemResetWarning,0822.6,5.00,000.00,028.4,027.0,000.0,036.9,030.2,14.8,0000.0,0023.18,0006.75,0004.68
2023-10-24 03:29:00,SystemResetWarning,0822.7,5.00,000.00,028.4,027.1,000.0,036.9,030.2,14.9,0000.0,0022.58,0006.67,0004.68
2023-10-24 03:30:00,SystemResetWarning,0822.7,5.00,000.00,028.4,027.2,000.0,036.9,030.2,14.9,0000.0,0021.97,0006.59,0004.67
2023-10-24 03:31:00,SystemResetWarning,0822.9,5.00,000.00,028.5,027.3,000.0,036.9,030.2,14.9,0000.0,0022.39,0006.56,0004.66
2023-10-24 03:32:00,SystemResetWarning,0822.8,5.00,000.00,028.5,027.3,000.0,036.9,030.3,14.8,0000.0,0022.56,0006.53,0004.65
2023-10-24 03:33:00,SystemResetWarning,0822.6,5.00,000.00,028.5,027.4,000.0,036.9,030.3,14.8,0000.0,0021.78,0006.47,0004.66
2023-10-24 03:34:00,SystemResetWarning,0822.6,5.00,000.00,028.6,027.4,000.0,037.0,030.3,14.8,0000.0,0020.63,0006.51,0004.66
2023-10-24 03:35:00,SystemResetWarning,0822.8,5.00,000.00,028.6,027.5,000.0,037.0,030.4,14.7,0000.0,0019.67,0006.51,0004.66
2023-10-24 03:36:00,SystemResetWarning,0822.9,5.00,000.00,028.6,027.5,000.0,037.0,030.4,14.7,0000.0,0020.14,0006.42,0004.64
2023-10-24 03:37:00,SystemResetWarning,0822.7,5.00,000.00,028.7,027.5,000.0,037.0,030.4,14.7,0000.7,0019.97,0006.42,0004.65
2023-10-24 03:38:00,SystemResetWarning,0822.8,5.00,000.00,028.7,027.6,000.0,037.0,030.4,14.7,0000.5,0019.41,0006.46,0004.64
2023-10-24 03:39:00,SystemResetWarning,0822.8,4.99,000.00,028.7,027.5,000.0,037.0,030.5,14.7,0000.0,0019.27,0006.50,0004.64
2023-10-24 03:40:00,SystemResetWarning,0822.7,4.98,000.00,028.7,025.7,000.0,037.0,030.3,14.8,0000.0,0020.74,0006.54,0004.63
2023-10-24 03:41:00,SystemResetWarning,0822.8,5.02,000.00,028.6,024.5,000.0,036.9,030.2,14.8,0000.0,0022.70,0006.59,0004.63
2023-10-24 03:42:00,SystemResetWarning,0822.8,5.01,000.00,028.5,024.5,000.0,036.9,030.0,15.0,0000.0,0023.86,0006.68,0004.65
2023-10-24 03:43:00,SystemResetWarning,0822.8,4.99,000.00,028.4,024.8,000.0,036.9,029.8,15.1,0000.0,0023.67,0006.69,0004.65
2023-10-24 03:44:00,SystemResetWarning,0822.6,5.00,000.00,028.4,025.2,000.0,036.9,029.9,15.2,0000.0,0025.05,0006.67,0004.62
2023-10-24 03:45:00,SystemResetWarning,0822.6,5.00,000.00,028.3,025.5,000.0,036.9,029.9,15.2,0000.0,0026.65,0006.65,0004.60
2023-10-24 03:46:00,SystemResetWarning,0822.6,5.01,000.00,028.3,025.9,000.0,036.9,030.0,15.2,0000.0,0027.16,0006.68,0004.59
2023-10-24 03:47:00,SystemResetWarning,0822.6,5.01,000.00,028.3,026.2,000.0,036.9,030.0,15.3,0000.0,0026.96,0006.72,0004.56
2023-10-24 03:48:00,SystemResetWarning,0822.8,5.00,000.00,028.3,026.4,000.0,036.9,030.0,15.3,0000.0,0027.72,0006.75,0004.54
2023-10-24 03:49:00,SystemResetWarning,0822.9,4.99,000.00,028.3,026.6,000.0,036.9,030.1,15.3,0000.0,0027.31,0006.70,0004.53
2023-10-24 03:50:00,SystemResetWarning,0823.0,4.99,000.00,028.4,026.7,000.0,036.9,030.1,15.2,0000.0,0027.30,0006.73,0004.51
2023-10-24 03:51:00,SystemResetWarning,0823.0,5.00,000.00,028.4,026.8,000.0,036.9,030.1,15.2,0000.0,0025.92,0006.72,0004.48
2023-10-24 03:52:00,SystemResetWarning,0823.1,5.00,000.00,028.4,027.0,000.0,036.9,030.1,15.2,0000.0,0024.09,0006.66,0004.46
2023-10-24 03:53:00,SystemResetWarning,0823.1,5.00,000.00,028.4,027.0,000.0,036.9,030.2,15.2,0000.0,0023.23,0006.55,0004.42
2023-10-24 03:54:00,SystemResetWarning,0823.1,5.00,000.00,028.5,027.1,000.0,036.9,030.2,15.2,0000.0,0023.30,0006.53,0004.39
2023-10-24 03:55:00,SystemResetWarning,0823.1,5.01,000.00,028.5,027.2,000.0,036.9,030.2,15.1,0001.6,0022.71,0006.60,0004.38
2023-10-24 03:56:00,SystemResetWarning,0823.0,5.00,000.00,028.5,027.2,000.0,036.9,030.3,15.1,0000.7,0021.72,0006.66,0004.38
2023-10-24 03:57:00,SystemResetWarning,0823.1,4.99,000.00,028.5,027.3,000.0,036.9,030.3,15.0,0000.0,0021.26,0006.71,0004.36
2023-10-24 03:58:00,SystemResetWarning,0822.8,5.00,000.00,028.6,027.3,000.0,037.0,030.3,15.0,0000.0,0021.54,0006.72,0004.35
2023-10-24 03:59:00,SystemResetWarning,0822.5,5.00,000.00,028.6,027.4,000.0,037.0,030.3,15.0,0000.0,0021.26,0006.70,0004.35
